When you browse on this site, cookies collect data to enhance your experience and personalize the content and advertising you see.
Visit our Privacy Policy to learn more. By continuing to use the site, you agree to this use of cookies and data.
  • In United Kingdom
  • List of Countries
  • For 7 days
  • Water Temperature
  • Weather Map
  • Weather Widgets
  • user-avatar
    Login

    Hourly Weather Puttlingen

    Today, 8 December, Sunday

    Time Temperature Precipitation Wind Pressure Humidity
    00:00 +5°C° 0 mm 3 mps 740 mmHg 97%
    01:00 +5°C° 0 mm 4 mps 739 mmHg 95%
    02:00 +5°C° 0 mm 5 mps 738 mmHg 93%
    03:00 +5°C° 0 mm 6 mps 737 mmHg 91%
    04:00 +5°C° 0 mm 6 mps 737 mmHg 90%
    05:00 +5°C° 0 mm 6 mps 737 mmHg 89%
    06:00 +5°C° 0 mm 6 mps 737 mmHg 86%
    07:00 +5°C° 0 mm 7 mps 736 mmHg 86%
    08:00 +6°C° 0 mm 7 mps 736 mmHg 87%
    09:00 +6°C° 0 mm 7 mps 735 mmHg 87%
    10:00 +8°C° 0.3 mm 7 mps 735 mmHg 88%
    11:00 +7°C° 0.3 mm 8 mps 734 mmHg 88%
    12:00 +9°C° 0.3 mm 8 mps 734 mmHg 89%
    13:00 +9°C° 1.1 mm 8 mps 733 mmHg 89%
    14:00 +9°C° 1.1 mm 8 mps 733 mmHg 90%
    15:00 +9°C° 1.1 mm 8 mps 732 mmHg 91%
    16:00 +9°C° 0.6 mm 7 mps 732 mmHg 90%
    17:00 +8°C° 0.6 mm 7 mps 732 mmHg 90%
    18:00 +8°C° 0.6 mm 6 mps 731 mmHg 89%
    19:00 +7°C° 0.3 mm 6 mps 731 mmHg 86%
    20:00 +5°C° 0.3 mm 6 mps 731 mmHg 83%
    21:00 +5°C° 0.3 mm 7 mps 731 mmHg 80%
    22:00 +5°C° 0.1 mm 7 mps 731 mmHg 82%
    23:00 +4°C° 0.1 mm 8 mps 731 mmHg 84%

    Tomorrow, 9 December, Monday

    Time Temperature Precipitation Wind Pressure Humidity
    00:00 +4°C° 0.1 mm 8 mps 732 mmHg 85%
    01:00 +4°C° 0.1 mm 8 mps 731 mmHg 85%
    02:00 +4°C° 0.1 mm 8 mps 730 mmHg 84%
    03:00 +4°C° 0.1 mm 8 mps 729 mmHg 83%
    04:00 +4°C° 0.2 mm 8 mps 729 mmHg 83%
    05:00 +3°C° 0.2 mm 9 mps 728 mmHg 83%
    06:00 +3°C° 0.2 mm 9 mps 728 mmHg 83%
    07:00 +3°C° 0.8 mm 9 mps 728 mmHg 85%
    08:00 +3°C° 0.8 mm 9 mps 728 mmHg 87%
    09:00 +2°C° 0.8 mm 9 mps 728 mmHg 89%
    10:00 +2°C° 0.5 mm 9 mps 728 mmHg 87%
    11:00 +4°C° 0.5 mm 8 mps 729 mmHg 85%
    12:00 +4°C° 0.5 mm 8 mps 729 mmHg 83%
    13:00 +3°C° 0.3 mm 7 mps 730 mmHg 85%
    14:00 +3°C° 0.3 mm 6 mps 730 mmHg 87%
    15:00 +3°C° 0.3 mm 6 mps 731 mmHg 89%
    16:00 +3°C° 0.1 mm 6 mps 733 mmHg 87%
    17:00 +3°C° 0.1 mm 6 mps 735 mmHg 86%
    18:00 +3°C° 0.1 mm 7 mps 736 mmHg 84%
    19:00 +3°C° 0 mm 6 mps 738 mmHg 83%
    20:00 +2°C° 0 mm 5 mps 739 mmHg 82%
    21:00 +1°C° 0 mm 5 mps 740 mmHg 81%
    22:00 +1°C° 0 mm 4 mps 742 mmHg 83%
    23:00 +1°C° 0 mm 3 mps 743 mmHg 86%

    Day after tomorrow, 10 December, Tuesday

    Time Temperature Precipitation Wind Pressure Humidity
    00:00 +1°C° 0 mm 3 mps 744 mmHg 88%
    01:00 0°C° 0 mm 3 mps 745 mmHg 89%
    02:00 0°C° 0 mm 3 mps 745 mmHg 90%
    03:00 +1°C° 0 mm 2 mps 745 mmHg 91%
    04:00 -1°C° 0 mm 2 mps 746 mmHg 91%
    05:00 +1°C° 0 mm 1 mps 747 mmHg 92%
    06:00 +1°C° 0 mm 1 mps 747 mmHg 92%
    07:00 +1°C° 0 mm 1 mps 747 mmHg 91%
    08:00 +2°C° 0 mm 1 mps 748 mmHg 90%
    09:00 +2°C° 0 mm 1 mps 748 mmHg 88%
    10:00 +2°C° 0 mm 2 mps 747 mmHg 85%
    11:00 +3°C° 0 mm 2 mps 747 mmHg 82%
    12:00 +4°C° 0 mm 2 mps 747 mmHg 79%
    13:00 +3°C° 0 mm 2 mps 746 mmHg 81%
    14:00 +3°C° 0 mm 2 mps 745 mmHg 83%
    15:00 +2°C° 0 mm 2 mps 745 mmHg 85%
    16:00 +2°C° 0 mm 2 mps 744 mmHg 87%
    17:00 +1°C° 0 mm 2 mps 744 mmHg 89%
    18:00 -1°C° 0 mm 2 mps 743 mmHg 91%
    19:00 -1°C° 0 mm 2 mps 743 mmHg 91%
    20:00 -1°C° 0 mm 2 mps 743 mmHg 90%
    21:00 +1°C° 0 mm 2 mps 742 mmHg 89%
    22:00 +1°C° 0 mm 2 mps 742 mmHg 88%
    23:00 -1°C° 0 mm 2 mps 741 mmHg 87%

    11 December, Wednesday

    Time Temperature Precipitation Wind Pressure Humidity
    00:00 -1°C° 0 mm 2 mps 740 mmHg 87%
    01:00 +1°C° 0 mm 2 mps 740 mmHg 85%
    02:00 0°C° 0 mm 3 mps 739 mmHg 84%
    03:00 +1°C° 0 mm 3 mps 739 mmHg 82%
    04:00 +1°C° 0.3 mm 3 mps 738 mmHg 84%
    05:00 +1°C° 0.3 mm 3 mps 738 mmHg 85%
    06:00 +1°C° 0.3 mm 3 mps 737 mmHg 87%
    07:00 +1°C° 0.3 mm 3 mps 737 mmHg 87%
    08:00 +1°C° 0.3 mm 3 mps 736 mmHg 86%
    09:00 +1°C° 0.3 mm 3 mps 736 mmHg 86%
    10:00 +1°C° 0.8 mm 3 mps 735 mmHg 88%
    11:00 +1°C° 0.8 mm 3 mps 734 mmHg 90%
    12:00 0°C° 0.8 mm 4 mps 734 mmHg 92%
    13:00 +1°C° 0.9 mm 4 mps 733 mmHg 93%
    14:00 +1°C° 0.9 mm 4 mps 733 mmHg 94%
    15:00 +1°C° 0.9 mm 5 mps 732 mmHg 95%
    16:00 +1°C° 0.5 mm 5 mps 732 mmHg 93%
    17:00 +2°C° 0.5 mm 6 mps 733 mmHg 91%
    18:00 +2°C° 0.5 mm 6 mps 733 mmHg 90%
    19:00 +1°C° 0 mm 5 mps 733 mmHg 90%
    20:00 +1°C° 0 mm 5 mps 733 mmHg 91%
    21:00 +1°C° 0 mm 4 mps 733 mmHg 92%
    22:00 +1°C° 0.1 mm 5 mps 732 mmHg 92%
    23:00 +1°C° 0.1 mm 5 mps 732 mmHg 93%

    12 December, Thursday

    Time Temperature Precipitation Wind Pressure Humidity
    00:00 +1°C° 0.1 mm 6 mps 731 mmHg 93%
    01:00 -1°C° 0.8 mm 6 mps 731 mmHg 94%
    02:00 -1°C° 0.8 mm 7 mps 731 mmHg 95%
    03:00 -1°C° 0.8 mm 7 mps 731 mmHg 96%
    04:00 -1°C° 0.7 mm 7 mps 731 mmHg 94%
    05:00 -1°C° 0.7 mm 7 mps 732 mmHg 92%
    06:00 -1°C° 0.7 mm 7 mps 732 mmHg 90%
    07:00 -1°C° 0.2 mm 7 mps 733 mmHg 90%
    08:00 -1°C° 0.2 mm 7 mps 734 mmHg 91%
    09:00 -1°C° 0.2 mm 6 mps 734 mmHg 91%
    10:00 -1°C° 0.1 mm 6 mps 734 mmHg 89%
    11:00 +1°C° 0.1 mm 6 mps 734 mmHg 86%
    12:00 +1°C° 0.1 mm 6 mps 734 mmHg 84%
    13:00 +1°C° 0 mm 6 mps 733 mmHg 84%
    14:00 +1°C° 0 mm 5 mps 733 mmHg 84%
    15:00 +1°C° 0 mm 5 mps 732 mmHg 83%
    16:00 +1°C° 0 mm 6 mps 731 mmHg 84%
    17:00 +1°C° 0 mm 6 mps 730 mmHg 84%
    18:00 +1°C° 0 mm 6 mps 729 mmHg 85%
    19:00 0°C° 0.2 mm 7 mps 727 mmHg 86%
    20:00 0°C° 0.2 mm 8 mps 725 mmHg 87%
    21:00 0°C° 0.2 mm 8 mps 723 mmHg 88%
    22:00 +1°C° 1.4 mm 9 mps 722 mmHg 89%
    23:00 +1°C° 1.4 mm 9 mps 720 mmHg 89%

    13 December, Friday

    Time Temperature Precipitation Wind Pressure Humidity
    00:00 +2°C° 1.4 mm 9 mps 718 mmHg 90%
    01:00 +3°C° 2.3 mm 9 mps 717 mmHg 91%
    02:00 +5°C° 2.3 mm 10 mps 716 mmHg 91%
    03:00 +5°C° 2.3 mm 10 mps 715 mmHg 92%
    04:00 +5°C° 1 mm 9 mps 715 mmHg 91%
    05:00 +4°C° 1 mm 8 mps 716 mmHg 90%
    06:00 +3°C° 1 mm 7 mps 716 mmHg 89%
    07:00 +3°C° 0.4 mm 7 mps 717 mmHg 88%
    08:00 +2°C° 0.4 mm 7 mps 717 mmHg 86%
    09:00 +2°C° 0.4 mm 7 mps 718 mmHg 84%
    10:00 +1°C° 0.2 mm 8 mps 719 mmHg 83%
    11:00 +1°C° 0.2 mm 8 mps 719 mmHg 82%
    12:00 +1°C° 0.2 mm 8 mps 720 mmHg 81%
    13:00 +1°C° 0.4 mm 8 mps 721 mmHg 81%
    14:00 +2°C° 0.4 mm 7 mps 721 mmHg 80%
    15:00 +2°C° 0.4 mm 7 mps 722 mmHg 80%
    16:00 +2°C° 0 mm 7 mps 723 mmHg 80%
    17:00 +2°C° 0 mm 7 mps 723 mmHg 81%
    18:00 +2°C° 0 mm 6 mps 724 mmHg 82%
    19:00 +2°C° 0.1 mm 6 mps 725 mmHg 83%
    20:00 +2°C° 0.1 mm 6 mps 725 mmHg 85%
    21:00 +2°C° 0.1 mm 6 mps 726 mmHg 87%
    22:00 +2°C° 0.1 mm 6 mps 726 mmHg 87%
    23:00 +2°C° 0.1 mm 6 mps 726 mmHg 87%
    Show more